Regional Weather Roundup
Issued by NWS

Home | Current Version | Previous Version | Graphics & Text | Print | Product List | Glossary On
Versions: 1 2 3 4 5 6 7 8 9 10 11 12 13 14 15 16 17 18 19 20 21 22 23 24 25 26 27 28 29 30 31 32 33 34 35 36 37 38 39 40 41 42 43 44 45 46 47 48 49 50
000
ASUS45 KSLC 201610
RWRUT

UTAH REGIONAL WEATHER ROUNDUP
NATIONAL WEATHER SERVICE SALT LAKE CITY UT
1000 AM MDT MON OCT 20 2014

UTZ001>011-023>025-201700-

NORTHERN UTAH

CITY           SKY/WX    TMP DP  RH WIND       PRES   REMARKS
BRIGHAM CITY   SUNNY     49  36  61 CALM      30.08S
DUGWAY         MOSUNNY   61  37  41 SE2       30.07S
HILL AFB       SUNNY     55  33  43 SE20      30.08R
LOGAN          SUNNY     48  37  65 NE3       30.09R
OGDEN          SUNNY     57  34  41 S8        30.07R
PROVO AIRPORT  NOT AVBL
SALT LAKE CITY MOSUNNY   62  40  44 SE10      30.06R
VERNAL         MOSUNNY   53  36  52 S3        30.20R
WENDOVER       SUNNY     54  37  54 E5        30.06S
HEBER CITY     SUNNY     45  36  70 CALM      30.18S
WEST JORDAN    SUNNY     61  43  51 SE14      30.09R

$$

UTZ012>022-026-027-201700-

SOUTHERN/CENTRAL UTAH

CITY           SKY/WX    TMP DP  RH WIND       PRES   REMARKS
BLANDING       SUNNY     58  43  55 S3        30.29S
BRYCE CANYON   SUNNY     50  36  58 CALM      30.26S
CEDAR CITY     SUNNY     55  43  63 CALM      30.12S
DELTA          SUNNY     55  36  50 CALM      30.10S
HANKSVILLE       N/A     54  32  43 CALM      30.18R
MILFORD        SUNNY     53  36  52 S6        30.10S
MOAB/CYNLANDS  SUNNY     64  37  36 SE9       30.14R
PRICE          SUNNY     58  33  39 W3        30.20R
ST GEORGE      SUNNY     63  36  36 CALM      30.05R
KANAB            N/A     61  39  44 NW5       30.17S

$$

REGIONAL REPORTS     COLORADO/ARIZONA

CITY           SKY/WX    TMP DP  RH WIND       PRES   REMARKS
CRAIG, CO      MOSUNNY   47  35  63 CALM      30.23F
GRAND JUNCTION SUNNY     61  43  51 SE15      30.17S
RIFLE          MOSUNNY   48  37  65 CALM      30.23F
MONTROSE       SUNNY     55  39  54 CALM      30.24S
CORTEZ         SUNNY     55  44  66 CALM      30.24S
PAGE, AZ       NOT AVBL
GRAND CANYON   SUNNY     58  40  51 E8        30.21R
KINGMAN        SUNNY     69  44  40 SE15      30.03R
FLAGSTAFF      SUNNY     54  39  57 NE5       30.22R

$$

REGIONAL REPORTS    NEVADA/IDAHO/WYOMING

CITY           SKY/WX    TMP DP  RH WIND       PRES   REMARKS
LAS VEGAS, NV  SUNNY     71  39  31 S6        29.92R
ELY            SUNNY     58  34  40 S14       30.12S
ELKO           SUNNY     48  28  46 CALM      30.04S
POCATELLO, ID  MOSUNNY   48  36  63 N6        30.04S
BURLEY         MOSUNNY   51  35  54 NE7       29.98S
EVANSTON, WY   NOT AVBL
ROCK SPRINGS   SUNNY     47  32  56 CALM      30.21R
KEMMERER       SUNNY     46  30  53 N7        30.22S

$$



USA.gov is the U.S. government's official web portal to all federal, state and local government web resources and services.